Weather History for Findlay, OH

Change the Weather History Date:

Thursday, June 20, 2013

  Actual Average Record
Temperature  
Mean Temperature 70 °F -  
Max Temperature 84 °F 79 °F 98 °F (1953)
Min Temperature 55 °F 59 °F 45 °F (1970)
Cooling Degree Days 4    
Growing Degree Days 20 (Base 50)    
Moisture  
Dew Point 52 °F    
Average Humidity 53    
Maximum Humidity 75    
Minimum Humidity 35    
Precipitation  
Precipitation 0.00 in - - ()
Sea Level Pressure  
Sea Level Pressure 30.16 in    
Wind  
Wind Speed 5 mph (SE)    
Max Wind Speed 9 mph    
Max Gust Speed -    
Visibility 10 miles    
Events      
Averages and records for this station are not official NWS values.
T = Trace of Precipitation, MM = Missing Value Source: NWS Daily Summary

Daily Weather History Graph

Daily Weather History Graph

Search for Another Location

Airport:

Trip Planner

Search our weather history database for the weather conditions in past years. The results will help you decide how hot, cold, wet, or windy it might be!

Date:

Astronomy

Jun. 20, 2013 Rise Set
Actual Time 6:02 AM EDT 9:10 PM EDT
Civil Twilight 5:28 AM EDT 9:43 PM EDT
Nautical Twilight 4:45 AM EDT 10:26 PM EDT
Astronomical Twilight 3:54 AM EDT 11:18 PM EDT
Moon 6:10 PM EDT (6/20) 3:29 AM EDT (6/20)
Length of Visible Light 16h 15m
Length of Day
15h 07m
Waxing Gibbous, 89% of the Moon is Illuminated
Jun 20
Waxing Gibbous
Jun 23
Full
Jun 30
Last Quarter
Jul 8
New
Jul 15
First Quarter

Hourly Weather History & Observations

Time (EDT) Temp. Heat Index Dew Point Humidity Pressure Visibility Wind Dir Wind Speed Gust Speed Precip Events Conditions
12:53 AM 60.1 °F - 48.0 °F 64% 30.14 in 10.0 mi East 6.9 mph - N/A   Clear
1:53 AM 57.9 °F - 46.9 °F 67% 30.14 in 10.0 mi ESE 3.5 mph - N/A   Clear
2:53 AM 57.0 °F - 46.9 °F 69% 30.14 in 10.0 mi ESE 4.6 mph - N/A   Clear
3:53 AM 57.0 °F - 46.9 °F 69% 30.14 in 10.0 mi SE 6.9 mph - N/A   Clear
4:53 AM 55.9 °F - 46.0 °F 69% 30.14 in 10.0 mi SE 4.6 mph - N/A   Clear
5:53 AM 55.9 °F - 46.9 °F 72% 30.16 in 10.0 mi Calm Calm - N/A   Clear
6:53 AM 55.9 °F - 48.0 °F 75% 30.18 in 10.0 mi SSE 3.5 mph - N/A   Clear
7:53 AM 60.1 °F - 50.0 °F 69% 30.19 in 10.0 mi SE 5.8 mph - N/A   Clear
8:53 AM 66.0 °F - 53.1 °F 63% 30.19 in 10.0 mi SE 6.9 mph - N/A   Clear
9:53 AM 72.0 °F - 54.0 °F 53% 30.20 in 10.0 mi SSE 8.1 mph - N/A   Clear
10:53 AM 75.9 °F - 52.0 °F 43% 30.19 in 10.0 mi South 8.1 mph - N/A   Clear
11:53 AM 79.0 °F - 50.0 °F 36% 30.18 in 10.0 mi Calm Calm - N/A   Clear
12:53 PM 79.0 °F - 50.0 °F 36% 30.18 in 10.0 mi SSE 4.6 mph - N/A   Clear
1:53 PM 81.0 °F - 52.0 °F 36% 30.17 in 10.0 mi WSW 9.2 mph - N/A   Clear
2:53 PM 82.9 °F 81.8 °F 53.1 °F 36% 30.17 in 10.0 mi NW 8.1 mph - N/A   Partly Cloudy
3:53 PM 82.9 °F 81.8 °F 53.1 °F 36% 30.17 in 10.0 mi NW 5.8 mph - N/A   Clear
4:53 PM 82.9 °F 81.8 °F 53.1 °F 36% 30.15 in 10.0 mi Variable 3.5 mph - N/A   Clear
5:53 PM 82.9 °F 82.0 °F 55.0 °F 38% 30.15 in 10.0 mi WNW 8.1 mph - N/A   Scattered Clouds
6:53 PM 84.0 °F 82.6 °F 54.0 °F 35% 30.13 in 10.0 mi Calm Calm - N/A   Clear
7:53 PM 80.1 °F 80.1 °F 55.0 °F 42% 30.13 in 10.0 mi SSW 3.5 mph - N/A   Clear
8:53 PM 79.0 °F - 55.0 °F 44% 30.13 in 10.0 mi Calm Calm - N/A   Clear
9:53 PM 75.9 °F - 57.9 °F 54% 30.14 in 10.0 mi ESE 3.5 mph - N/A   Overcast
10:53 PM 73.9 °F - 59.0 °F 59% 30.15 in 10.0 mi East 4.6 mph - N/A   Mostly Cloudy
11:53 PM 71.1 °F - 57.0 °F 61% 30.16 in 10.0 mi SE 4.6 mph - N/A   Clear